GW4172 Weather Reports


time (UTC)temp
C
wind
direction
speed
KPH
gust
KPH
rain 1hr
cm
rain 24hr
cm
rain mn
cm
humidity
%
barometer
mb
20260510153348 5 231 6.4 8.0 0.00 0.00 0.00 62 1019.7
20260510152844 5 335 6.4 11.3 0.00 0.00 0.00 63 1019.2
20260510152342 5 304 3.2 4.8 0.00 0.00 0.00 64 1019.5
20260510151838 5 320 4.8 8.0 0.00 0.00 0.00 63 1019.6
20260510151336 6 287 3.2 4.8 0.00 0.00 0.00 61 1019.3
20260510150831 6 268 0.0 1.6 0.00 0.00 0.00 65 1019.4
20260510150327 5 2 1.6 4.8 0.00 0.00 0.00 66 1019.2
20260510145824 5 349 3.2 3.2 0.00 0.00 0.00 66 1019.5
20260510145320 5 324 1.6 3.2 0.00 0.00 0.00 68 1019.2
20260510144817 5 322 9.7 17.7 0.00 0.00 0.00 64 1019.2
20260510144314 5 332 0.0 1.6 0.00 0.00 0.00 68 1019.2
20260510143813 5 253 4.8 4.8 0.00 0.00 0.00 67 1019.1
20260510143310 5 300 3.2 3.2 0.00 0.00 0.00 68 1019.1
20260510142807 5 257 1.6 1.6 0.00 0.00 0.00 70 1019.0
20260510142306 5 257 1.6 3.2 0.00 0.00 0.00 69 1019.1
20260510141800 5 309 6.4 8.0 0.00 0.00 0.00 67 1019.2
20260510141258 5 332 1.6 1.6 0.00 0.00 0.00 69 1018.9
20260510140755 5 298 1.6 1.6 0.00 0.00 0.00 68 1018.7
20260510140250 5 332 0.0 0.0 0.00 0.00 0.00 69 1018.8
20260510135744 5 327 1.6 1.6 0.00 0.00 0.00 69 1018.8
20260510135240 4 282 0.0 0.0 0.00 0.00 0.00 69 1018.7
20260510134738 4 21 6.4 8.0 0.00 0.00 0.00 69 1018.5
20260510134235 4 319 1.6 1.6 0.00 0.00 0.00 69 1018.7
20260510133731 4 317 3.2 3.2 0.00 0.00 0.00 69 1018.4
20260510133226 4 336 4.8 4.8 0.00 0.00 0.00 71 1018.5
20260510132723 4 269 4.8 8.0 0.00 0.00 0.00 70 1018.4
20260510132220 5 290 3.2 3.2 0.00 0.00 0.00 69 1018.5
20260510131717 4 2 1.6 3.2 0.00 0.00 0.00 72 1018.5
20260510131215 5 301 1.6 1.6 0.00 0.00 0.00 73 1018.3
20260510130711 5 300 3.2 4.8 0.00 0.00 0.00 71 1018.3
20260510130209 4 241 4.8 4.8 0.00 0.00 0.00 75 1018.2
20260510125704 3 295 3.2 3.2 0.00 0.00 0.00 76 1018.2
20260510125200 4 241 1.6 3.2 0.00 0.00 0.00 77 1018.2
20260510124657 4 304 3.2 3.2 0.00 0.00 0.00 76 1018.2
20260510124154 4 278 1.6 3.2 0.00 0.00 0.00 77 1017.8
20260510123649 4 322 0.0 0.0 0.00 0.00 0.00 78 1018.0
20260510123146 3 307 12.9 16.1 0.00 0.00 0.00 78 1017.8
20260510122642 3 305 3.2 3.2 0.00 0.00 0.00 79 1017.6
20260510122138 3 61 0.0 1.6 0.00 0.00 0.00 82 1017.6
20260510121635 2 297 1.6 3.2 0.00 0.00 0.00 84 1017.6
20260510121132 2 25 1.6 3.2 0.00 0.00 0.00 84 1017.7
20260510120630 2 351 1.6 1.6 0.00 0.00 0.00 86 1017.5
20260510120125 2 316 0.0 1.6 0.00 0.00 0.00 86 1017.4
20260510115622 2 275 0.0 1.6 0.00 0.00 0.00 86 1017.3
20260510115120 2 292 3.2 3.2 0.00 0.00 0.00 86 1017.0
20260510114615 2 286 4.8 4.8 0.00 0.00 0.00 86 1017.1
20260510114111 2 264 1.6 1.6 0.00 0.00 0.00 87 1017.1
20260510113607 2 307 1.6 1.6 0.00 0.00 0.00 87 1016.8
20260510113105 2 313 3.2 3.2 0.00 0.00 0.00 88 1016.7
20260510112601 2 307 3.2 4.8 0.00 0.00 0.00 88 1016.3
20260510112057 2 284 4.8 8.0 0.00 0.00 0.00 89 1016.4
20260510111554 2 349 6.4 9.7 0.00 0.00 0.00 89 1016.5
20260510111050 2 285 4.8 8.0 0.00 0.00 0.00 90 1016.5
20260510110546 2 315 4.8 4.8 0.00 0.00 0.00 90 1016.4
20260510110043 2 304 1.6 1.6 0.00 0.00 0.00 90 1016.2
20260510105538 1 291 1.6 3.2 0.00 0.00 0.00 90 1016.2
20260510105033 1 294 1.6 1.6 0.00 0.00 0.00 90 1016.3
20260510104530 1 292 0.0 0.0 0.00 0.00 0.00 90 1016.3
20260510104026 1 248 1.6 1.6 0.00 0.00 0.00 90 1016.2
20260510103524 1 308 0.0 0.0 0.00 0.00 0.00 90 1016.2
20260510103020 1 284 0.0 0.0 0.00 0.00 0.00 90 1015.8
20260510102516 2 294 1.6 1.6 0.00 0.00 0.00 90 1015.8
20260510102012 2 239 0.0 1.6 0.00 0.00 0.00 90 1016.1
20260510101509 2 343 4.8 4.8 0.00 0.00 0.00 90 1015.9
20260510101008 2 329 3.2 4.8 0.00 0.00 0.00 90 1015.8
20260510100504 2 281 0.0 1.6 0.00 0.00 0.00 89 1015.7
20260510100001 2 326 1.6 1.6 0.00 0.00 0.00 89 1015.6
20260510095456 2 296 1.6 3.2 0.00 0.00 0.00 89 1015.5
20260510094955 2 298 4.8 4.8 0.00 0.00 0.00 90 1015.5
20260510094450 2 313 3.2 8.0 0.00 0.00 0.00 90 1015.3
20260510093947 2 269 1.6 1.6 0.00 0.00 0.00 90 1015.3
20260510093442 2 340 1.6 1.6 0.00 0.00 0.00 90 1015.4
20260510092939 2 310 4.8 4.8 0.00 0.00 0.00 90 1015.4
20260510092437 2 308 0.0 1.6 0.00 0.00 0.00 90 1015.2
20260510091936 2 336 3.2 3.2 0.00 0.00 0.00 90 1015.0
20260510091433 2 334 0.0 0.0 0.00 0.00 0.00 90 1015.0
20260510090929 2 299 4.8 8.0 0.00 0.00 0.00 90 1015.2
20260510090426 2 311 1.6 3.2 0.00 0.00 0.00 90 1015.0
20260510085922 2 299 3.2 3.2 0.00 0.00 0.00 90 1015.0
20260510085418 1 300 6.4 8.0 0.00 0.00 0.00 90 1015.1
20260510084913 1 302 4.8 8.0 0.00 0.00 0.00 90 1015.0
20260510084411 1 302 1.6 1.6 0.00 0.00 0.00 91 1015.0
20260510083907 1 332 1.6 3.2 0.00 0.00 0.00 90 1014.8
20260510083403 2 300 1.6 3.2 0.00 0.00 0.00 90 1014.9
20260510082859 2 322 4.8 4.8 0.00 0.00 0.00 90 1015.1
20260510082357 2 340 3.2 4.8 0.00 0.00 0.00 90 1014.6
20260510081855 2 314 4.8 4.8 0.00 0.00 0.00 90 1014.8
20260510081351 2 298 1.6 1.6 0.00 0.00 0.00 89 1014.7
20260510080848 2 333 3.2 4.8 0.00 0.00 0.00 89 1014.7
20260510080342 2 320 1.6 1.6 0.00 0.00 0.00 89 1014.8
20260510075839 2 315 3.2 3.2 0.00 0.00 0.00 89 1014.6
20260510075337 2 291 1.6 3.2 0.00 0.00 0.00 89 1014.5
20260510074828 2 284 1.6 1.6 0.00 0.00 0.00 89 1014.5
20260510074326 2 297 3.2 3.2 0.00 0.00 0.00 88 1014.5
20260510073822 2 321 4.8 8.0 0.00 0.00 0.00 88 1014.5
20260510073318 2 322 3.2 4.8 0.00 0.00 0.00 88 1014.5
20260510072814 2 347 9.7 11.3 0.00 0.00 0.00 88 1014.5
20260510072311 2 283 4.8 9.7 0.00 0.00 0.00 88 1014.3
20260510071807 2 293 4.8 4.8 0.00 0.00 0.00 87 1014.5
20260510071303 2 301 4.8 4.8 0.00 0.00 0.00 88 1014.3
20260510070803 2 334 3.2 3.2 0.00 0.00 0.00 88 1014.5
20260510070259 2 308 6.4 9.7 0.00 0.00 0.00 89 1014.5
20260510065758 2 293 1.6 1.6 0.00 0.00 0.00 89 1014.3
20260510065255 2 311 3.2 3.2 0.00 0.00 0.00 89 1014.4
20260510064752 2 289 4.8 8.0 0.00 0.00 0.00 90 1014.3
20260510064250 1 333 4.8 4.8 0.00 0.00 0.00 90 1014.4
20260510063745 1 329 4.8 8.0 0.00 0.00 0.00 90 1014.3
20260510063242 1 307 3.2 3.2 0.00 0.00 0.00 89 1014.3
20260510062739 1 315 1.6 3.2 0.00 0.00 0.00 89 1014.4
20260510062235 2 294 1.6 1.6 0.00 0.00 0.00 89 1014.2
20260510061730 2 308 3.2 3.2 0.00 0.00 0.00 89 1014.2
20260510061228 2 316 1.6 1.6 0.00 0.00 0.00 88 1014.2
20260510060724 2 288 1.6 1.6 0.00 0.00 0.00 88 1014.2
20260510060221 2 333 4.8 8.0 0.00 0.00 0.00 88 1014.2
20260510055717 2 310 1.6 1.6 0.00 0.00 0.00 88 1014.3
20260510055216 2 295 1.6 1.6 0.00 0.00 0.00 88 1014.1
20260510054715 2 290 0.0 1.6 0.00 0.00 0.00 89 1014.1
20260510054211 2 297 0.0 1.6 0.00 0.00 0.00 89 1014.3
20260510053706 1 285 1.6 1.6 0.00 0.00 0.00 90 1014.2
20260510053202 1 292 1.6 1.6 0.00 0.00 0.00 90 1014.4
20260510052658 2 292 1.6 1.6 0.00 0.00 0.00 89 1014.3
20260510052155 2 295 1.6 1.6 0.00 0.00 0.00 89 1014.1
20260510051650 2 307 0.0 1.6 0.00 0.00 0.00 89 1013.8
20260510051147 2 300 0.0 1.6 0.00 0.00 0.00 88 1014.1
20260510050644 2 298 1.6 3.2 0.00 0.00 0.00 88 1013.8
20260510050142 2 290 0.0 1.6 0.00 0.00 0.00 88 1014.0
20260510045638 2 324 1.6 3.2 0.00 0.00 0.00 88 1013.7
20260510045135 2 320 1.6 1.6 0.00 0.00 0.00 87 1013.8
20260510044631 2 329 1.6 3.2 0.00 0.00 0.00 87 1013.8
20260510044129 2 296 1.6 1.6 0.00 0.00 0.00 87 1013.7
20260510043624 3 277 1.6 1.6 0.00 0.00 0.00 87 1013.7
20260510043121 3 283 0.0 1.6 0.00 0.00 0.00 87 1013.4
20260510042619 2 294 1.6 1.6 0.00 0.00 0.00 88 1013.4
20260510042114 2 296 1.6 3.2 0.00 0.00 0.00 88 1013.7
20260510041612 2 298 0.0 1.6 0.00 0.00 0.00 88 1013.6
20260510041109 2 293 1.6 1.6 0.00 0.00 0.00 89 1013.8
20260510040606 2 269 3.2 3.2 0.00 0.00 0.00 89 1013.5
20260510035558 2 253 4.8 8.0 0.00 0.00 0.00 89 1013.6
20260510035058 2 295 1.6 1.6 0.00 0.00 0.00 89 1013.4
20260510034556 2 299 1.6 1.6 0.00 0.00 0.00 89 1013.4
20260510034053 2 294 0.0 1.6 0.00 0.00 0.00 89 1013.4
20260510033549 2 295 0.0 0.0 0.00 0.00 0.00 88 1013.4
20260510033047 2 326 1.6 1.6 0.00 0.00 0.00 88 1013.5
20260510032543 3 301 1.6 1.6 0.00 0.00 0.00 88 1013.2
20260510032039 2 296 0.0 1.6 0.00 0.00 0.00 88 1013.1
20260510031539 2 293 0.0 1.6 0.00 0.00 0.00 89 1013.2
20260510031035 2 286 1.6 1.6 0.00 0.00 0.00 89 1013.4
20260510030530 2 301 1.6 1.6 0.00 0.00 0.00 90 1013.4
20260510030028 2 296 1.6 1.6 0.00 0.00 0.00 90 1013.4
20260510025525 2 292 0.0 1.6 0.00 0.00 0.00 91 1013.5
20260510025023 2 300 0.0 0.0 0.00 0.00 0.00 91 1013.6
20260510024519 2 301 4.8 4.8 0.00 0.00 0.00 91 1013.6
20260510024015 2 301 4.8 8.0 0.00 0.00 0.00 91 1013.5
20260510023511 2 264 1.6 3.2 0.00 0.00 0.00 91 1013.4
20260510023009 3 317 1.6 3.2 0.00 0.00 0.00 88 1013.5
20260510022508 4 304 4.8 8.0 0.00 0.00 0.00 80 1013.6
20260510022008 3 305 0.0 1.6 0.00 0.00 0.00 77 1013.1
20260510021505 3 292 0.0 0.0 0.00 0.00 0.00 78 1013.3
20260510021002 3 294 0.0 0.0 0.00 0.00 0.00 77 1012.9
20260510020456 3 295 0.0 1.6 0.00 0.00 0.00 77 1012.8
20260510015952 3 285 0.0 0.0 0.00 0.00 0.00 77 1012.6
20260510015448 3 297 0.0 0.0 0.00 0.00 0.00 77 1012.6
20260510014943 4 299 1.6 1.6 0.00 0.00 0.00 76 1012.5
20260510014441 4 293 0.0 0.0 0.00 0.00 0.00 76 1012.6
20260510013938 4 281 0.0 0.0 0.00 0.00 0.00 76 1012.4
20260510013432 4 287 0.0 0.0 0.00 0.00 0.00 76 1012.2
20260510012928 5 286 0.0 0.0 0.00 0.00 0.00 76 1012.0
20260510012423 5 305 1.6 1.6 0.00 0.00 0.00 76 1012.0
20260510011918 5 286 0.0 0.0 0.00 0.00 0.00 75 1012.1
20260510011413 5 285 1.6 1.6 0.00 0.00 0.00 74 1011.9
20260510010909 5 296 3.2 4.8 0.00 0.00 0.00 74 1011.9
20260510010407 5 305 4.8 8.0 0.00 0.00 0.00 75 1011.8
20260510005903 5 281 0.0 0.0 0.00 0.00 0.00 76 1011.8
20260510005400 5 299 3.2 3.2 0.00 0.00 0.00 76 1011.6
20260510004857 5 287 0.0 1.6 0.00 0.00 0.00 76 1011.6
20260510004355 5 288 3.2 3.2 0.00 0.00 0.00 76 1011.5
20260510003852 5 292 3.2 3.2 0.00 0.00 0.00 76 1011.8
20260510003350 5 276 1.6 3.2 0.00 0.00 0.00 77 1011.5
20260510002848 5 329 3.2 3.2 0.00 0.00 0.00 78 1011.4
20260510002346 5 313 1.6 1.6 0.00 0.00 0.00 79 1011.4
20260510001842 5 269 1.6 1.6 0.00 0.00 0.00 80 1011.4
20260510001340 5 315 3.2 3.2 0.00 0.00 0.00 82 1011.7
20260510000836 5 280 6.4 11.3 0.00 0.00 0.00 79 1011.7
20260510000333 6 283 1.6 1.6 0.00 0.00 0.00 68 1011.6
20260509235830 8 300 11.3 17.7 0.00 0.00 0.00 51 1011.0
20260509235326 8 328 4.8 4.8 0.00 0.00 0.00 50 1010.6
20260509234822 8 311 3.2 3.2 0.00 0.00 0.00 50 1010.6
20260509234319 8 313 3.2 3.2 0.00 0.00 0.00 50 1010.2
20260509233817 7 315 3.2 8.0 0.00 0.00 0.00 50 1010.1
20260509233314 8 280 8.0 12.9 0.00 0.00 0.00 49 1010.3
20260509232810 8 268 4.8 4.8 0.00 0.00 0.00 50 1010.3
20260509232308 8 324 3.2 4.8 0.00 0.00 0.00 50 1010.0
20260509231804 8 326 0.0 0.0 0.00 0.00 0.00 52 1010.0
20260509231301 8 296 1.6 3.2 0.00 0.00 0.00 52 1010.1
20260509230759 8 249 1.6 3.2 0.00 0.00 0.00 52 1010.2
20260509230256 8 338 1.6 3.2 0.00 0.00 0.00 51 1010.1
20260509225751 8 244 3.2 4.8 0.00 0.00 0.00 50 1010.2
20260509225247 9 346 3.2 4.8 0.00 0.00 0.00 50 1010.1
20260509224743 9 296 8.0 9.7 0.00 0.00 0.00 49 1010.0
20260509224241 10 282 1.6 1.6 0.00 0.00 0.00 50 1009.9
20260509223737 8 301 1.6 3.2 0.00 0.00 0.00 52 1009.9
20260509223235 8 294 1.6 3.2 0.00 0.00 0.00 53 1009.9
20260509222731 8 290 0.0 0.0 0.00 0.00 0.00 52 1009.7
20260509222226 8 269 3.2 4.8 0.00 0.00 0.00 51 1009.8
20260509221722 8 307 4.8 8.0 0.00 0.00 0.00 51 1009.7
20260509221219 8 347 3.2 4.8 0.00 0.00 0.00 51 1009.1
20260509220715 8 300 1.6 3.2 0.00 0.00 0.00 50 1009.5
20260509220212 10 301 4.8 8.0 0.00 0.00 0.00 47 1009.5
20260509215707 10 316 4.8 4.8 0.00 0.00 0.00 46 1009.5
20260509215204 10 288 1.6 3.2 0.00 0.00 0.00 49 1009.6
20260509214701 8 285 3.2 3.2 0.00 0.00 0.00 53 1009.6
20260509214158 8 238 4.8 4.8 0.00 0.00 0.00 54 1009.6
20260509213655 8 286 1.6 3.2 0.00 0.00 0.00 54 1009.5
20260509213150 9 16 4.8 4.8 0.00 0.00 0.00 52 1009.3
20260509212648 8 316 3.2 3.2 0.00 0.00 0.00 54 1009.3
20260509212144 7 343 8.0 12.9 0.00 0.00 0.00 56 1009.3
20260509211635 7 244 4.8 8.0 0.00 0.00 0.00 57 1009.3
20260509211132 8 319 9.7 11.3 0.00 0.00 0.00 56 1009.3
20260509210629 8 345 4.8 4.8 0.00 0.00 0.00 54 1009.5
20260509210126 8 298 0.0 1.6 0.00 0.00 0.00 56 1009.2
20260509205621 7 14 3.2 4.8 0.00 0.00 0.00 58 1009.0
20260509205115 7 295 4.8 8.0 0.00 0.00 0.00 57 1009.2
20260509204611 7 273 6.4 8.0 0.00 0.00 0.00 54 1009.1
20260509204108 7 263 9.7 14.5 0.00 0.00 0.00 53 1008.9
20260509203604 7 294 3.2 4.8 0.00 0.00 0.00 53 1009.0
20260509203103 7 275 1.6 1.6 0.00 0.00 0.00 56 1008.8
20260509202557 8 48 4.8 9.7 0.00 0.00 0.00 50 1008.7
20260509202052 8 328 8.0 11.3 0.00 0.00 0.00 47 1008.6
20260509201548 9 0 8.0 9.7 0.00 0.00 0.00 46 1008.1
20260509201046 9 315 4.8 8.0 0.00 0.00 0.00 47 1008.4
20260509200544 8 308 4.8 8.0 0.00 0.00 0.00 49 1008.3
20260509200042 11 332 3.2 4.8 0.00 0.00 0.00 48 1008.2
20260509195537 10 255 4.8 4.8 0.00 0.00 0.00 47 1008.2
20260509195037 8 305 1.6 1.6 0.00 0.00 0.00 49 1008.2
20260509194532 8 313 6.4 8.0 0.00 0.00 0.00 48 1008.2
20260509194030 8 272 4.8 4.8 0.00 0.00 0.00 48 1008.1
20260509193524 8 24 3.2 3.2 0.00 0.00 0.00 48 1008.2
20260509193021 8 302 1.6 1.6 0.00 0.00 0.00 50 1008.2
20260509192518 8 287 1.6 1.6 0.00 0.00 0.00 49 1008.0
20260509192013 8 286 1.6 3.2 0.00 0.00 0.00 49 1007.9
20260509191507 8 310 11.3 16.1 0.00 0.00 0.00 47 1007.9
20260509191004 9 240 6.4 9.7 0.00 0.00 0.00 46 1007.6
20260509190500 10 264 3.2 3.2 0.00 0.00 0.00 46 1007.8
20260509185959 8 326 1.6 3.2 0.00 0.00 0.00 49 1007.8
20260509185455 8 356 6.4 9.7 0.00 0.00 0.00 48 1007.4
20260509184952 7 304 8.0 11.3 0.00 0.00 0.00 49 1007.5
20260509184450 7 264 9.7 12.9 0.00 0.00 0.00 49 1007.5
20260509183947 8 327 3.2 3.2 0.00 0.00 0.00 50 1007.7
20260509183446 8 291 8.0 14.5 0.00 0.00 0.00 50 1007.4
20260509182943 7 315 1.6 3.2 0.00 0.00 0.00 51 1007.4
20260509182439 7 341 3.2 4.8 0.00 0.00 0.00 50 1007.3
20260509181937 7 304 3.2 3.2 0.00 0.00 0.00 51 1007.0
20260509181430 7 317 4.8 11.3 0.00 0.00 0.00 52 1007.1
20260509180927 8 346 3.2 8.0 0.00 0.00 0.00 51 1007.0
20260509180422 8 216 3.2 3.2 0.00 0.00 0.00 50 1007.1
20260509175919 7 269 1.6 3.2 0.00 0.00 0.00 52 1006.9
20260509175415 7 291 1.6 1.6 0.00 0.00 0.00 52 1006.9
20260509174911 7 329 8.0 14.5 0.00 0.00 0.00 53 1006.8
20260509174407 7 278 4.8 8.0 0.00 0.00 0.00 54 1007.0
20260509173903 7 290 4.8 8.0 0.00 0.00 0.00 53 1006.8
20260509173357 8 306 6.4 8.0 0.00 0.00 0.00 53 1006.6
20260509172854 8 319 3.2 3.2 0.00 0.00 0.00 55 1006.7
20260509172351 8 334 8.0 9.7 0.00 0.00 0.00 52 1006.5
20260509171847 8 359 4.8 4.8 0.00 0.00 0.00 53 1006.3
20260509171343 8 287 3.2 3.2 0.00 0.00 0.00 54 1006.3
20260509170839 8 277 1.6 3.2 0.00 0.00 0.00 56 1006.2
20260509170335 7 322 6.4 8.0 0.00 0.00 0.00 58 1006.3
20260509165830 8 289 9.7 11.3 0.00 0.00 0.00 56 1005.7
20260509165325 9 236 9.7 11.3 0.00 0.00 0.00 54 1005.9
20260509164821 8 317 8.0 11.3 0.00 0.00 0.00 57 1005.6
20260509164317 8 303 4.8 8.0 0.00 0.00 0.00 56 1005.6
20260509163814 8 348 4.8 4.8 0.00 0.00 0.00 57 1005.4
20260509163310 8 236 6.4 9.7 0.00 0.00 0.00 55 1005.7
20260509162809 10 235 4.8 4.8 0.00 0.00 0.00 54 1005.3
20260509162306 9 296 1.6 1.6 0.00 0.00 0.00 54 1005.1
20260509161759 9 17 8.0 9.7 0.00 0.00 0.00 53 1004.9
20260509161255 10 354 6.4 9.7 0.00 0.00 0.00 51 1004.8
20260509160750 9 339 6.4 8.0 0.00 0.00 0.00 53 1004.7
20260509160247 8 14 12.9 20.9 0.00 0.00 0.00 53 1004.8
20260509155742 9 292 4.8 8.0 0.00 0.00 0.00 52 1004.4
20260509155239 10 21 8.0 9.7 0.00 0.00 0.00 49 1004.5
20260509154735 9 270 8.0 12.9 0.00 0.00 0.00 49 1004.2
20260509154232 9 256 3.2 4.8 0.00 0.00 0.00 49 1004.2
20260509153729 9 347 6.4 9.7 0.00 0.00 0.00 49 1003.9